Location: Chassagnes
(44.4047°N, 4.1657°E)
Time: 12:40:59
(UTC+00:00)

Cosmos 2227 Rocket - Pass Details

Date: 27 October 2020
Orbit: 839 x 845 km, 71.0° (Epoch: 23 November)

Event Time Altitude Azimuth Distance (km) Brightness Sun altitude
Rises 17:21:13 0° 339° (NNW) 3,407 5.5 -8.1°
Reaches altitude 10° 17:23:50 10° 347° (NNW) 2,469 4.7 -8.5°
Maximum altitude 17:29:08 40° 56° (ENE) 1,237 2.7 -9.5°
Drops below altitude 10° 17:34:25 10° 125° (SE) 2,460 4.2 -10.4°
Sets 17:37:00 0° 133° (SE) 3,391 5.0 -10.9°
